Location: Palagano
(44.3167°N, 10.6500°E)
Time: 16:03:22
(UTC+00:00)

Daily predictions for brighter satellites

Satellite Brightness Start Highest point End
(mag) Time Altitude Azimuth Time Altitude Azimuth Time Altitude Azimuth
Cosmos 2082 Rocket 2.4 16:01:54 10° S 16:07:28 61° ESE 16:13:04 10° NNE
Cosmos 540 Rocket 3.5 16:03:22 10° SSW 16:08:28 88° ESE 16:13:37 10° NNE
Sich 1 3.2 16:05:53 10° N 16:10:06 51° ENE 16:14:19 10° SSE
Cosmos 1500 Rocket 3.9 16:05:45 10° NNW 16:10:10 73° W 16:14:31 10° S
FengYun 1-2 T 4.3 16:07:33 10° SSE 16:13:01 61° ENE 16:18:28 10° N
COSMOS 2455 2.9 16:08:04 10° SSW 16:14:05 87° ESE 16:20:10 10° NNE
SMAP 3.3 16:11:19 10° SE 16:15:46 47° ENE 16:20:15 10° N
NOAA 6 4.2 16:12:18 10° SE 16:17:15 51° ENE 16:22:12 10° N
Cosmos 1933 3.5 16:16:42 10° SSW 16:20:43 78° W 16:24:46 10° N
Cosmos 1833 Rocket 3.5 16:15:26 10° SW 16:20:54 52° WNW 16:26:25 10° NNE
Cosmos 1805 Rocket 3.5 16:18:17 10° N 16:22:39 90° NE 16:26:59 10° S
Cosmos 2278 3.8 16:17:38 10° NNW 16:23:16 57° ENE 16:28:50 10° SE
Cosmos 1602 3.9 16:21:39 10° N 16:25:31 78° W 16:29:23 10° S
CZ-4B DEB 4.4 16:21:09 10° SE 16:26:25 49° ENE 16:31:41 10° N
USA 305 4.0 16:26:03 10° NW 16:29:43 27° NNE 16:32:51 13° ENE
CZ-2C R/B 3.6 16:27:04 10° NE 16:31:16 24° E 16:35:26 10° SSE
CZ-4B R/B 3.2 16:27:54 10° S 16:31:51 69° WSW 16:35:37 10° NNW
SL-24 R/B - RUBIN 2 3.9 16:28:07 10° NW 16:32:35 69° WSW 16:36:51 10° SSE
Cosmos 1500 3.1 16:32:02 10° N 16:35:48 88° E 16:39:30 10° S
Meteor 1-14 Rocket 4.4 16:30:20 10° N 16:36:09 60° ENE 16:42:02 10° SSE
Cosmos 44 Rocket 3.5 16:32:33 10° NNW 16:37:20 49° NE 16:41:57 10° SE
Meteor 2-16 Rocket 4.5 16:34:20 10° N 16:40:23 59° ENE 16:46:26 10° SSE
COSMOS 2406 4.1 16:35:01 10° SW 16:40:33 48° WNW 16:46:06 10° NNE
Cosmos 1814 Rocket 3.9 16:36:07 10° SSW 16:41:19 80° ESE 16:46:31 10° NNE
Cosmos 921 Rocket 3.6 16:38:45 10° SSE 16:42:34 35° E 16:45:57 13° NE
Cosmos 1570 Rocket 4.0 16:42:57 10° SSW 16:48:11 79° ESE 16:53:26 10° NNE
CZ-4B R/B 3.4 16:47:27 10° SE 16:52:30 43° ENE 16:57:32 10° N
MOS 1-B Rocket 4.3 16:46:41 10° NNE 16:52:43 57° ESE 16:59:41 10° S
CZ-2D R/B 3.2 16:51:03 10° SSE 16:54:49 62° ENE 16:58:36 10° N
Cosmos 2298 Rocket 4.2 16:51:00 10° N 16:56:09 48° ENE 17:01:18 10° SE
USA 267 3.3 16:50:26 14° NE 16:56:18 83° NW 17:02:50 10° WSW
MOS 1-B 4.3 16:51:38 10° SSE 16:57:20 65° ENE 17:03:04 10° N
Cosmos 1939 Rocket 3.7 16:53:30 10° S 16:57:31 55° W 17:01:31 10° NNW
ATLAS CENTAUR R/B 3.8 16:49:15 10° WSW 16:58:10 43° NW 17:01:31 15° NNE
Cosmos 1151 Rocket 3.0 16:56:14 10° S 17:00:34 84° W 17:04:57 10° N
Meteor 1-27 Rocket 4.4 16:56:07 10° SSE 17:00:47 29° E 17:04:00 17° NE
USA 306 3.6 16:58:19 10° NW 17:02:15 35° NNE 17:03:51 26° ENE
COSMO-SKYMED 1 3.0 16:59:10 14° NNE 17:02:35 41° E 17:06:41 10° S
Cosmos 1782 4.3 16:59:03 10° SW 17:02:47 38° WNW 17:06:31 10° N
Cosmos 1633 Rocket 3.0 16:58:23 10° N 17:02:48 85° E 17:07:11 10° S
APEX 3.2 16:59:32 10° S 17:03:13 46° ESE 17:04:23 31° ENE
Meteor 2-6 Rocket 4.2 16:57:52 10° S 17:03:34 70° E 17:09:07 10° NNE
Cosmos 1666 2.7 17:00:48 10° NNW 17:04:31 77° W 17:08:12 10° S
Landsat 5 4.2 17:05:04 27° ENE 17:05:49 28° E 17:09:13 10° SSE
Cosmos 2360 Rocket 3.1 17:02:19 10° N 17:07:00 26° NE 17:08:17 24° ENE
PAYLOAD B 4.2 17:01:47 10° SSE 17:07:23 83° ENE 17:13:00 10° NNW
ISS -1.5 17:04:48 10° WNW 17:07:42 26° SW 17:10:35 10° SSE
Cosmos 1900 4.5 17:03:07 10° SW 17:07:57 72° NW 17:11:52 16° NNE
Cosmos 1818 3.5 17:07:26 10° NW 17:12:57 89° SW 17:18:23 10° SSE
Cosmos 2279 Rocket 4.2 17:10:22 10° SSW 17:16:34 76° W 17:22:47 10° N
CZ-2C R/B 3.2 17:13:38 10° SW 17:17:01 22° S 17:19:13 15° SE
Meteor 2-15 4.3 17:12:49 10° S 17:18:54 73° E 17:24:59 10° NNE
ATLAS 5 CENTAUR R/B 2.2 17:13:34 10° NW 17:19:18 39° NNE 17:19:38 37° NE
Cosmos 2266 Rocket 4.0 17:15:38 10° N 17:22:00 65° E 17:28:22 10° SSE
USA 307 3.4 17:18:51 10° NW 17:22:54 41° NNE 17:23:33 38° NE
SL-08 RB Rocket 4.0 17:19:39 10° SE 17:24:02 44° ENE 17:28:24 10° N
CZ-4C R/B 3.5 17:16:46 10° NW 17:24:06 63° WSW 17:32:30 10° SSE
Lacrosse 5 rocket 1.4 17:22:10 10° NW 17:26:08 74° SW 17:28:57 20° SE
SKYMED 3 4.4 17:23:34 18° NNE 17:26:47 76° ESE 17:31:07 10° S
USA 234 3.2 17:22:43 10° SE 17:29:16 87° NE 17:35:50 10° NW
ATLAS 2AS CENTAUR R/B 4.2 17:24:34 10° NNW 17:29:36 19° NNE 17:31:18 17° NNE
Cosmos 1933 Rocket 3.5 17:25:37 10° N 17:29:55 59° E 17:34:11 10° SSE
Cosmos 2322 Rocket 2.2 17:24:23 10° NNW 17:30:01 56° ENE 17:35:03 13° SE
Tiangong 3.2 17:28:24 10° SSW 17:30:10 17° SSE 17:30:10 17° SSE
Cosmos 1328 Rocket 4.2 17:26:18 10° SSW 17:30:40 57° W 17:35:04 10° N
Cosmos 2150 Rocket 3.9 17:26:33 10° NNW 17:31:46 88° ENE 17:37:02 10° SSE
Cosmos 1980 Rocket 4.2 17:28:01 10° NW 17:32:52 30° WSW 17:37:40 10° SSW
Cosmos 1470 Rocket 3.8 17:31:29 10° NNW 17:35:57 74° W 17:40:25 10° S
Cosmos 1544 2.9 17:32:25 10° N 17:36:03 87° W 17:39:40 10° S
Cosmos 1867 3.6 17:31:23 10° SSW 17:36:44 61° ESE 17:38:27 41° ENE
NOSS 3-3 (A) 4.1 17:31:39 10° S 17:36:58 46° ESE 17:38:22 39° E
NOSS 3-3 (C) 4.1 17:31:45 10° S 17:37:04 45° ESE 17:38:27 39° E
H-2A R/B 2.6 17:32:36 10° S 17:37:39 57° W 17:42:35 10° NNW
Cosmos 1125 Rocket 3.4 17:32:43 10° NNW 17:38:01 88° WSW 17:43:17 10° SSE
X-37B 1.4 17:35:38 10° WSW 17:37:49 43° SW 17:37:49 43° SW
DEBRIS 3.4 17:36:16 10° SSW 17:38:35 40° SE 17:38:35 40° SE
Okean O Rocket 1.5 17:34:57 10° SSE 17:39:25 89° ENE 17:43:55 10° NNW
Meteor 1-10 Rocket 4.3 17:34:57 10° SSW 17:40:42 80° W 17:46:23 10° N
USA 32 3.9 17:37:28 10° S 17:42:39 69° E 17:46:22 19° NNE
Meteor 1-11 Rocket 3.6 17:37:31 10° N 17:43:13 85° E 17:49:00 10° S
USA 308 3.2 17:41:30 10° NW 17:45:21 52° N 17:45:21 52° N
ARGOS 3.3 17:44:03 10° S 17:49:28 77° WSW 17:54:53 10° NNW
SL-16 R/B 2.3 17:44:55 10° NNW 17:50:37 79° WSW 17:56:16 10° SSE
SKYMED 2 4.0 17:47:47 20° N 17:50:42 60° WNW 17:54:59 10° SSW
Cosmos 2082 Rocket 4.1 17:47:25 10° WSW 17:51:58 24° NW 17:56:34 10° N
deb Chang Zheng 4 4.3 17:50:50 10° S 17:55:02 53° W 17:59:17 10° NNW
Cosmos 1241 Rocket 4.3 17:53:51 10° SSW 18:00:14 79° ESE 18:01:58 50° NE
Feng Yun 1-1 Rocket 4.3 17:58:22 10° SSE 18:04:18 89° WSW 18:10:10 10° NNW
USA 305 3.6 18:05:47 10° NW 18:08:52 47° NW 18:08:52 47° NW
Cosmos 2333 Rocket 3.5 18:05:09 10° NNW 18:08:05 27° N 18:08:05 27° N
CZ-2C R/B 3.6 18:06:51 10° N 18:11:45 44° WNW 18:16:37 10° SW
Aureole 3 Rocket 3.9 18:12:34 10° SSW 18:17:01 64° WNW 18:23:22 10° N
Cosmos 2219 Rocket 3.9 18:13:09 10° NNW 18:15:05 20° N 18:15:05 20° N
USA 267 4.1 18:37:47 35° N 18:38:50 37° NNW 18:44:43 10° W
Cosmos 2360 Rocket 3.0 18:45:49 10° NNW 18:50:08 46° WNW 18:50:08 46° WNW
CZ-2C R/B 4.3 18:52:51 10° WSW 18:53:23 12° SW 18:53:23 12° SW
Cosmos 2322 Rocket 4.3 19:09:15 10° NW 19:13:37 23° W 19:17:09 13° SW
ATLAS 2AS CENTAUR R/B 4.4 19:15:47 10° NNW 19:18:44 24° NNW 19:18:44 24° NNW
